FW5830 Weather Reports


time (UTC)temp
C
wind
direction
speed
KPH
gust
KPH
rain 1hr
cm
rain 24hr
cm
rain mn
cm
humidity
%
barometer
mb
20260906094603 19 130 0.0 1.6 0.00 0.00 0.00 50 1020.7
20260906093057 20 130 3.2 9.7 0.00 0.00 0.00 49 1020.7
20260906091551 20 128 6.4 9.7 0.00 0.00 0.00 48 1020.6
20260906090049 21 116 4.8 8.0 0.00 0.00 0.00 46 1020.4
20260906084557 21 93 6.4 11.3 0.00 0.00 0.00 45 1020.3
20260906083055 21 105 3.2 8.0 0.00 0.00 0.00 44 1020.3
20260906081555 21 84 0.0 4.8 0.00 0.00 0.00 46 1020.2
20260906080048 21 0 0.0 3.2 0.00 0.00 0.00 46 1020.1
20260906074556 21 103 3.2 12.9 0.00 0.00 0.00 46 1020.0
20260906073057 21 122 4.8 9.7 0.00 0.00 0.00 46 1020.0
20260906071554 21 106 1.6 9.7 0.00 0.00 0.00 47 1020.1
20260906070046 21 103 1.6 8.0 0.00 0.00 0.00 44 1020.1
20260906064555 21 0 0.0 1.6 0.00 0.00 0.00 44 1020.1
20260906063057 22 80 0.0 4.8 0.00 0.00 0.00 43 1020.3
20260906061556 22 94 1.6 4.8 0.00 0.00 0.00 44 1020.4
20260906060133 21 110 1.6 4.8 0.00 0.00 0.00 45 1020.5
20260906054548 21 47 1.6 6.4 0.00 0.00 0.00 48 1020.5
20260906053055 21 47 1.6 6.4 0.00 0.00 0.00 51 1020.8
20260906051554 22 80 0.0 3.2 0.00 0.00 0.00 47 1020.9
20260906050109 23 334 0.0 3.2 0.00 0.00 0.00 40 1021.1
20260906044556 23 339 4.8 17.7 0.00 0.00 0.00 38 1021.3
20260906043057 25 325 1.6 12.9 0.00 0.00 0.00 34 1021.3
20260906041553 25 0 0.0 14.5 0.00 0.00 0.00 33 1020.7
20260906040050 25 124 6.4 12.9 0.00 0.00 0.00 32 1020.1
20260906034556 24 89 1.6 6.4 0.00 0.00 0.00 32 1019.7
20260906033054 24 0 0.0 1.6 0.00 0.00 0.00 31 1019.5
20260906031609 24 68 0.0 1.6 0.00 0.00 0.00 31 1019.6
20260906030056 25 58 0.0 1.6 0.00 0.00 0.00 31 1019.4
20260906024556 25 86 0.0 1.6 0.00 0.00 0.00 30 1019.2
20260906023105 25 89 0.0 1.6 0.00 0.00 0.00 29 1018.9
20260906021558 26 89 1.6 6.4 0.00 0.00 0.00 28 1018.9
20260906020059 26 0 0.0 3.2 0.00 0.00 0.00 27 1018.8
20260906014553 27 101 1.6 8.0 0.00 0.00 0.00 27 1018.8
20260906013055 27 120 9.7 12.9 0.00 0.00 0.00 26 1018.8
20260906011603 27 98 8.0 19.3 0.00 0.00 0.00 26 1018.6
20260906010054 28 135 4.8 9.7 0.00 0.00 0.00 25 1018.6
20260906004556 28 133 3.2 8.0 0.00 0.00 0.00 24 1018.6
20260906003058 29 0 0.0 3.2 0.00 0.00 0.00 23 1018.7
20260906001554 29 195 1.6 4.8 0.00 0.00 0.00 22 1018.6
20260906000105 30 176 3.2 6.4 0.00 0.00 0.00 22 1018.7
20260905234559 30 120 0.0 4.8 0.00 0.00 0.00 21 1018.5
20260905233102 31 120 0.0 3.2 0.00 0.00 0.00 20 1018.5
20260905231603 31 120 0.0 4.8 0.00 0.00 0.00 21 1018.4
20260905230100 31 314 0.0 4.8 0.00 0.00 0.00 21 1018.4
20260905224552 31 304 1.6 4.8 0.00 0.00 0.00 21 1018.2
20260905223052 30 262 0.0 4.8 0.00 0.00 0.00 21 1018.5
20260905221601 31 315 1.6 3.2 0.00 0.00 0.00 20 1018.6
20260905220056 31 319 0.0 8.0 0.00 0.00 0.00 21 1018.6
20260905214602 31 304 1.6 4.8 0.00 0.00 0.00 20 1018.8
20260905213053 31 308 3.2 6.4 0.00 0.00 0.00 20 1018.9
20260905211556 31 266 0.0 6.4 0.00 0.00 0.00 20 1019.1
20260905210104 30 136 3.2 11.3 0.00 0.00 0.00 20 1019.1
20260905204552 31 0 1.6 6.4 0.00 0.00 0.00 20 1019.3
20260905203047 31 0 0.0 9.7 0.00 0.00 0.00 21 1019.4
20260905201556 31 272 1.6 6.4 0.00 0.00 0.00 21 1019.6
20260905200126 31 276 1.6 11.3 0.00 0.00 0.00 21 1019.8
20260905194550 31 293 1.6 11.3 0.00 0.00 0.00 20 1019.8
20260905193059 31 0 3.2 9.7 0.00 0.00 0.00 20 1020.0
20260905191554 31 192 1.6 9.7 0.00 0.00 0.00 21 1020.0
20260905190056 31 335 3.2 12.9 0.00 0.00 0.00 22 1020.1
20260905184552 31 208 1.6 6.4 0.00 0.00 0.00 21 1020.2
20260905183057 31 307 1.6 8.0 0.00 0.00 0.00 23 1020.2
20260905181555 31 0 1.6 9.7 0.00 0.00 0.00 23 1020.4
20260905180109 30 266 3.2 9.7 0.00 0.00 0.00 25 1020.5
20260905174555 28 308 1.6 4.8 0.00 0.00 0.00 27 1020.7
20260905173124 28 307 1.6 4.8 0.00 0.00 0.00 27 1020.7
20260905171556 28 308 0.0 3.2 0.00 0.00 0.00 26 1020.6
20260905164601 27 316 1.6 3.2 0.00 0.00 0.00 30 1020.4
20260905163054 27 318 1.6 4.8 0.00 0.00 0.00 31 1020.3
20260905161557 26 0 0.0 3.2 0.00 0.00 0.00 33 1020.2
20260905160101 27 0 0.0 3.2 0.00 0.00 0.00 30 1020.2
20260905154600 27 0 0.0 6.4 0.00 0.00 0.00 29 1020.4
20260905153053 26 0 0.0 4.8 0.00 0.00 0.00 29 1020.2
20260905151550 26 0 0.0 4.8 0.00 0.00 0.00 28 1020.1
20260905150055 25 110 1.6 8.0 0.00 0.00 0.00 28 1020.2
20260905144555 26 102 1.6 9.7 0.00 0.00 0.00 27 1020.4
20260905143126 25 75 3.2 14.5 0.00 0.00 0.00 28 1020.3
20260905141554 24 84 4.8 16.1 0.00 0.00 0.00 29 1020.3
20260905134600 22 98 6.4 16.1 0.00 0.00 0.00 30 1020.1
20260905133053 21 115 4.8 9.7 0.00 0.00 0.00 33 1020.0
20260905131554 -17 0.0 0.0 0.00 0.00 0.00 1020.0
20260905130050 -17 0.0 0.0 0.00 0.00 0.00 1020.0
20260905124553 -17 0.0 0.0 0.00 0.00 0.00 1019.8
20260905123102 -17 0.0 0.0 0.00 0.00 0.00 1019.5
20260905121558 -17 0.0 0.0 0.00 0.00 0.00 1019.4
20260905120107 -17 0.0 0.0 0.00 0.00 0.00 1019.3
20260905114606 -17 0.0 0.0 0.00 0.00 0.00 1019.2
20260905113102 -17 0.0 0.0 0.00 0.00 0.00 1019.2
20260905111636 21 0.0 0.0 0.00 0.00 0.00 40 1019.2
20260905110055 21 85 1.6 6.4 0.00 0.00 0.00 39 1019.0
20260905104555 21 290 0.0 4.8 0.00 0.00 0.00 40 1019.0
20260905103102 21 101 3.2 8.0 0.00 0.00 0.00 35 1018.8
20260905101552 22 91 0.0 1.6 0.00 0.00 0.00 35 1018.8
20260905100059 22 60 0.0 3.2 0.00 0.00 0.00 35 1018.7